Year,Month,Day,Hour,Minute,Value (Times are PST for windspeed in km/hr)
2015,08,28,00,00,4.10
2015,08,28,00,01,2.00
2015,08,28,00,02,0.10
2015,08,28,00,03,0.00
2015,08,28,00,04,0.00
2015,08,28,00,05,0.10
2015,08,28,00,06,0.00
2015,08,28,00,07,0.10
2015,08,28,00,08,0.00
2015,08,28,00,09,0.10
2015,08,28,00,10,0.10
2015,08,28,00,11,0.00
2015,08,28,00,12,0.00
2015,08,28,00,13,0.10
2015,08,28,00,14,0.50
2015,08,28,00,15,2.60
2015,08,28,00,16,3.60
2015,08,28,00,17,2.60
2015,08,28,00,18,0.10
2015,08,28,00,19,0.00
2015,08,28,00,20,0.00
2015,08,28,00,21,0.00
2015,08,28,00,22,0.00
2015,08,28,00,23,0.00
2015,08,28,00,24,0.00
2015,08,28,00,25,2.40
2015,08,28,00,26,3.00
2015,08,28,00,27,0.40
2015,08,28,00,28,0.10
2015,08,28,00,29,0.00
2015,08,28,00,30,0.00
2015,08,28,00,31,0.00
2015,08,28,00,32,0.00
2015,08,28,00,33,0.00
2015,08,28,00,34,0.10
2015,08,28,00,35,0.00
2015,08,28,00,36,0.10
2015,08,28,00,37,1.90
2015,08,28,00,38,0.00
2015,08,28,00,39,0.00
2015,08,28,00,40,0.00
2015,08,28,00,41,0.00
2015,08,28,00,42,0.00
2015,08,28,00,43,0.00
2015,08,28,00,44,0.00
2015,08,28,00,45,0.00
2015,08,28,00,46,0.10
2015,08,28,00,47,0.10
2015,08,28,00,48,0.00
2015,08,28,00,49,0.00
2015,08,28,00,50,0.00
2015,08,28,00,51,0.00
2015,08,28,00,52,0.00
2015,08,28,00,53,0.60
2015,08,28,00,54,0.40
2015,08,28,00,55,0.00
2015,08,28,00,56,0.00
2015,08,28,00,57,1.20
2015,08,28,00,58,2.20
2015,08,28,00,59,0.30
2015,08,28,01,00,2.80
2015,08,28,01,01,0.40
2015,08,28,01,02,2.40
2015,08,28,01,03,0.20
2015,08,28,01,04,0.10
2015,08,28,01,05,0.00
2015,08,28,01,06,0.00
2015,08,28,01,07,0.00
2015,08,28,01,08,0.00
2015,08,28,01,09,0.10
2015,08,28,01,10,1.20
2015,08,28,01,11,0.10
2015,08,28,01,12,0.10
2015,08,28,01,13,1.30
2015,08,28,01,14,0.00
2015,08,28,01,15,0.00
2015,08,28,01,16,0.00
2015,08,28,01,17,0.50
2015,08,28,01,18,3.40
2015,08,28,01,19,1.00
2015,08,28,01,20,1.50
2015,08,28,01,21,1.10
2015,08,28,01,22,1.50
2015,08,28,01,23,1.20
2015,08,28,01,24,1.50
2015,08,28,01,25,0.00
2015,08,28,01,26,0.00
2015,08,28,01,27,0.80
2015,08,28,01,28,3.60
2015,08,28,01,29,3.10
2015,08,28,01,30,5.40
2015,08,28,01,31,2.50
2015,08,28,01,32,2.70
2015,08,28,01,33,2.80
2015,08,28,01,34,1.70
2015,08,28,01,35,0.00
2015,08,28,01,36,0.30
2015,08,28,01,37,0.70
2015,08,28,01,38,1.70
2015,08,28,01,39,0.00
2015,08,28,01,40,0.10
2015,08,28,01,41,0.00
2015,08,28,01,42,0.00
2015,08,28,01,43,0.10
2015,08,28,01,44,0.00
2015,08,28,01,45,0.50
2015,08,28,01,46,0.30
2015,08,28,01,47,2.10
2015,08,28,01,48,1.20
2015,08,28,01,49,0.00
2015,08,28,01,50,0.00
2015,08,28,01,51,0.00
2015,08,28,01,52,0.10
2015,08,28,01,53,0.40
2015,08,28,01,54,2.60
2015,08,28,01,55,0.30
2015,08,28,01,56,0.00
2015,08,28,01,57,0.80
2015,08,28,01,58,2.00
2015,08,28,01,59,0.20
2015,08,28,02,00,0.00
2015,08,28,02,01,0.00
2015,08,28,02,02,0.00
2015,08,28,02,03,0.00
2015,08,28,02,04,0.00
2015,08,28,02,05,0.00
2015,08,28,02,06,0.00
2015,08,28,02,07,0.00
2015,08,28,02,08,0.00
2015,08,28,02,09,0.00
2015,08,28,02,10,0.00
2015,08,28,02,11,0.00
2015,08,28,02,12,0.00
2015,08,28,02,13,0.00
2015,08,28,02,14,0.00
2015,08,28,02,15,0.00
2015,08,28,02,16,0.00
2015,08,28,02,17,0.00
2015,08,28,02,18,0.10
2015,08,28,02,19,0.00
2015,08,28,02,20,0.00
2015,08,28,02,21,0.00
2015,08,28,02,22,0.10
2015,08,28,02,23,1.80
2015,08,28,02,24,1.20
2015,08,28,02,25,0.10
2015,08,28,02,26,0.00
2015,08,28,02,27,0.00
2015,08,28,02,28,0.00
2015,08,28,02,29,0.00
2015,08,28,02,30,0.00
2015,08,28,02,31,0.10
2015,08,28,02,32,0.00
2015,08,28,02,33,0.00
2015,08,28,02,34,0.00
2015,08,28,02,35,0.10
2015,08,28,02,36,1.40
2015,08,28,02,37,0.60
2015,08,28,02,38,0.00
2015,08,28,02,39,0.00
2015,08,28,02,40,0.00
2015,08,28,02,41,0.00
2015,08,28,02,42,0.00
2015,08,28,02,43,1.30
2015,08,28,02,44,3.40
2015,08,28,02,45,3.40
2015,08,28,02,46,3.30
2015,08,28,02,47,3.50
2015,08,28,02,48,3.90
2015,08,28,02,49,3.20
2015,08,28,02,50,4.00
2015,08,28,02,51,4.80
2015,08,28,02,52,4.30
2015,08,28,02,53,1.50
2015,08,28,02,54,1.20
2015,08,28,02,55,0.00
2015,08,28,02,56,0.10
2015,08,28,02,57,0.00
2015,08,28,02,58,0.80
2015,08,28,02,59,1.50
2015,08,28,03,00,3.00
2015,08,28,03,01,4.30
2015,08,28,03,02,2.40
2015,08,28,03,03,2.10
2015,08,28,03,04,3.70
2015,08,28,03,05,5.10
2015,08,28,03,06,2.10
2015,08,28,03,07,2.40
2015,08,28,03,08,2.20
2015,08,28,03,09,1.50
2015,08,28,03,10,1.30
2015,08,28,03,11,2.90
2015,08,28,03,12,1.80
2015,08,28,03,13,0.50
2015,08,28,03,14,0.10
2015,08,28,03,15,3.10
2015,08,28,03,16,2.30
2015,08,28,03,17,0.00
2015,08,28,03,18,1.00
2015,08,28,03,19,1.20
2015,08,28,03,20,2.60
2015,08,28,03,21,1.40
2015,08,28,03,22,4.10
2015,08,28,03,23,0.10
2015,08,28,03,24,3.60
2015,08,28,03,25,2.90
2015,08,28,03,26,2.70
2015,08,28,03,27,1.10
2015,08,28,03,28,0.00
2015,08,28,03,29,1.20
2015,08,28,03,30,3.10
2015,08,28,03,31,0.10
2015,08,28,03,32,0.80
2015,08,28,03,33,0.00
2015,08,28,03,34,0.00
2015,08,28,03,35,1.50
2015,08,28,03,36,1.80
2015,08,28,03,37,1.80
2015,08,28,03,38,1.60
2015,08,28,03,39,2.80
2015,08,28,03,40,2.50
2015,08,28,03,41,0.20
2015,08,28,03,42,0.00
2015,08,28,03,43,0.10
2015,08,28,03,44,0.10
2015,08,28,03,45,0.50
2015,08,28,03,46,3.80
2015,08,28,03,47,3.10
2015,08,28,03,48,1.30
2015,08,28,03,49,1.50
2015,08,28,03,50,4.50
2015,08,28,03,51,3.10
2015,08,28,03,52,5.20
2015,08,28,03,53,3.40
2015,08,28,03,54,6.50
2015,08,28,03,55,3.90
2015,08,28,03,56,6.70
2015,08,28,03,57,7.00
2015,08,28,03,58,3.80
2015,08,28,03,59,4.80
2015,08,28,04,00,4.20
2015,08,28,04,01,4.10
2015,08,28,04,02,3.60
2015,08,28,04,03,4.40
2015,08,28,04,04,5.70
2015,08,28,04,05,3.10
2015,08,28,04,06,1.00
2015,08,28,04,07,2.70
2015,08,28,04,08,1.00
2015,08,28,04,09,0.00
2015,08,28,04,10,0.00
2015,08,28,04,11,0.10
2015,08,28,04,12,0.10
2015,08,28,04,13,2.10
2015,08,28,04,14,1.20
2015,08,28,04,15,4.90
2015,08,28,04,16,1.90
2015,08,28,04,17,0.40
2015,08,28,04,18,0.80
2015,08,28,04,19,0.00
2015,08,28,04,20,0.00
2015,08,28,04,21,0.00
2015,08,28,04,22,0.00
2015,08,28,04,23,0.00
2015,08,28,04,24,0.10
2015,08,28,04,25,0.10
2015,08,28,04,26,0.00
2015,08,28,04,27,0.00
2015,08,28,04,28,0.00
2015,08,28,04,29,0.00
2015,08,28,04,30,0.00
2015,08,28,04,31,0.00
2015,08,28,04,32,0.10
2015,08,28,04,33,0.00
2015,08,28,04,34,0.00
2015,08,28,04,35,0.10
2015,08,28,04,36,0.10
2015,08,28,04,37,0.10
2015,08,28,04,38,0.10
2015,08,28,04,39,0.00
2015,08,28,04,40,0.10
2015,08,28,04,41,0.00
2015,08,28,04,42,0.50
2015,08,28,04,43,0.30
2015,08,28,04,44,0.10
2015,08,28,04,45,0.60
2015,08,28,04,46,0.10
2015,08,28,04,47,0.00
2015,08,28,04,48,0.00
2015,08,28,04,49,0.00
2015,08,28,04,50,0.10
2015,08,28,04,51,0.50
2015,08,28,04,52,0.00
2015,08,28,04,53,0.00
2015,08,28,04,54,0.00
2015,08,28,04,55,0.10
2015,08,28,04,56,2.00
2015,08,28,04,57,0.00
2015,08,28,04,58,0.00
2015,08,28,04,59,0.00
2015,08,28,05,00,0.00
2015,08,28,05,01,0.00
2015,08,28,05,02,0.00
2015,08,28,05,03,0.00
2015,08,28,05,04,0.00
2015,08,28,05,05,0.00
2015,08,28,05,06,0.00
2015,08,28,05,07,0.00
2015,08,28,05,08,0.00
2015,08,28,05,09,0.00
2015,08,28,05,10,1.70
2015,08,28,05,11,0.20
2015,08,28,05,12,1.80
2015,08,28,05,13,1.80
2015,08,28,05,14,0.00
2015,08,28,05,15,0.60
2015,08,28,05,16,0.80
2015,08,28,05,17,0.00
2015,08,28,05,18,0.00
2015,08,28,05,19,0.00
2015,08,28,05,20,0.00
2015,08,28,05,21,0.00
2015,08,28,05,22,0.00
2015,08,28,05,23,0.00
2015,08,28,05,24,0.00
2015,08,28,05,25,3.10
2015,08,28,05,26,4.10
2015,08,28,05,27,2.30
2015,08,28,05,28,0.00
2015,08,28,05,29,1.50
2015,08,28,05,30,2.70
2015,08,28,05,31,0.00
2015,08,28,05,32,0.90
2015,08,28,05,33,0.00
2015,08,28,05,34,1.10
2015,08,28,05,35,0.50
2015,08,28,05,36,1.50
2015,08,28,05,37,0.10
2015,08,28,05,38,0.00
2015,08,28,05,39,0.00
2015,08,28,05,40,0.00
2015,08,28,05,41,0.00
2015,08,28,05,42,0.00
2015,08,28,05,43,0.00
2015,08,28,05,44,0.00
2015,08,28,05,45,0.00
2015,08,28,05,46,0.00
2015,08,28,05,47,0.00
2015,08,28,05,48,0.00
2015,08,28,05,49,0.00
2015,08,28,05,50,0.00
2015,08,28,05,51,0.10
2015,08,28,05,52,2.90
2015,08,28,05,53,3.60
2015,08,28,05,54,2.70
2015,08,28,05,55,1.50
2015,08,28,05,56,0.10
2015,08,28,05,57,0.00
2015,08,28,05,58,0.00
2015,08,28,05,59,0.00
2015,08,28,06,00,0.00
2015,08,28,06,01,0.00
2015,08,28,06,02,0.00
2015,08,28,06,03,0.00
2015,08,28,06,04,0.00
2015,08,28,06,05,0.00
2015,08,28,06,06,0.00
2015,08,28,06,07,0.00
2015,08,28,06,08,0.00
2015,08,28,06,09,1.50
2015,08,28,06,10,0.10
2015,08,28,06,11,0.00
2015,08,28,06,12,0.00
2015,08,28,06,13,0.00
2015,08,28,06,14,0.10
2015,08,28,06,15,0.00
2015,08,28,06,16,0.00
2015,08,28,06,17,0.00
2015,08,28,06,18,0.00
2015,08,28,06,19,0.00
2015,08,28,06,20,0.00
2015,08,28,06,21,0.00
2015,08,28,06,22,0.00
2015,08,28,06,23,0.00
2015,08,28,06,24,0.00
2015,08,28,06,25,0.10
2015,08,28,06,26,1.00
2015,08,28,06,27,1.70
2015,08,28,06,28,0.60
2015,08,28,06,29,0.20
2015,08,28,06,30,0.50
2015,08,28,06,31,2.80
2015,08,28,06,32,1.50
2015,08,28,06,33,0.00
2015,08,28,06,34,0.00
2015,08,28,06,35,0.00
2015,08,28,06,36,0.00
2015,08,28,06,37,0.00
2015,08,28,06,38,0.00
2015,08,28,06,39,0.00
2015,08,28,06,40,0.00
2015,08,28,06,41,0.00
2015,08,28,06,42,0.00
2015,08,28,06,43,0.00
2015,08,28,06,44,0.00
2015,08,28,06,45,0.00
2015,08,28,06,46,2.20
2015,08,28,06,47,3.00
2015,08,28,06,48,3.40
2015,08,28,06,49,4.30
2015,08,28,06,50,1.70
2015,08,28,06,51,0.80
2015,08,28,06,52,0.20
2015,08,28,06,53,0.00
2015,08,28,06,54,0.00
2015,08,28,06,55,0.00
2015,08,28,06,56,0.20
2015,08,28,06,57,0.80
2015,08,28,06,58,0.80
2015,08,28,06,59,0.00
2015,08,28,07,00,0.00
2015,08,28,07,01,0.00
2015,08,28,07,02,0.10
2015,08,28,07,03,0.00
2015,08,28,07,04,0.00
2015,08,28,07,05,0.00
2015,08,28,07,06,0.00
2015,08,28,07,07,0.00
2015,08,28,07,08,0.80
2015,08,28,07,09,0.60
2015,08,28,07,10,1.30
2015,08,28,07,11,2.70
2015,08,28,07,12,1.80
2015,08,28,07,13,3.00
2015,08,28,07,14,0.20
2015,08,28,07,15,0.00
2015,08,28,07,16,0.00
2015,08,28,07,17,1.10
2015,08,28,07,18,1.50
2015,08,28,07,19,0.00
2015,08,28,07,20,0.00
2015,08,28,07,21,0.50
2015,08,28,07,22,3.20
2015,08,28,07,23,2.40
2015,08,28,07,24,0.20
2015,08,28,07,25,0.00
2015,08,28,07,26,0.00
2015,08,28,07,27,0.30
2015,08,28,07,28,1.50
2015,08,28,07,29,1.30
2015,08,28,07,30,0.80
2015,08,28,07,31,0.00
2015,08,28,07,32,0.00
2015,08,28,07,33,0.00
2015,08,28,07,34,0.00
2015,08,28,07,35,0.00
2015,08,28,07,36,0.90
2015,08,28,07,37,3.00
2015,08,28,07,38,2.00
2015,08,28,07,39,1.20
2015,08,28,07,40,0.00
2015,08,28,07,41,0.00
2015,08,28,07,42,0.00
2015,08,28,07,43,0.00
2015,08,28,07,44,0.00
2015,08,28,07,45,0.00
2015,08,28,07,46,0.00
2015,08,28,07,47,0.00
2015,08,28,07,48,0.00
2015,08,28,07,49,0.00
2015,08,28,07,50,0.00
2015,08,28,07,51,0.20
2015,08,28,07,52,1.30
2015,08,28,07,53,2.20
2015,08,28,07,54,2.00
2015,08,28,07,55,1.30
2015,08,28,07,56,1.50
2015,08,28,07,57,0.20
2015,08,28,07,58,2.20
2015,08,28,07,59,1.70
2015,08,28,08,00,2.30
2015,08,28,08,01,4.00
2015,08,28,08,02,4.80
2015,08,28,08,03,4.10
2015,08,28,08,04,5.70
2015,08,28,08,05,5.50
2015,08,28,08,06,4.70
2015,08,28,08,07,4.80
2015,08,28,08,08,2.90
2015,08,28,08,09,2.00
2015,08,28,08,10,0.10
2015,08,28,08,11,0.00
2015,08,28,08,12,0.60
2015,08,28,08,13,2.40
2015,08,28,08,14,2.20
2015,08,28,08,15,1.10
2015,08,28,08,16,2.90
2015,08,28,08,17,3.00
2015,08,28,08,18,4.10
2015,08,28,08,19,3.00
2015,08,28,08,20,3.40
2015,08,28,08,21,2.70
2015,08,28,08,22,0.30
2015,08,28,08,23,1.60
2015,08,28,08,24,3.80
2015,08,28,08,25,4.90
2015,08,28,08,26,5.00
2015,08,28,08,27,5.20
2015,08,28,08,28,6.20
2015,08,28,08,29,5.60
2015,08,28,08,30,4.80
2015,08,28,08,31,0.50
2015,08,28,08,32,3.70
2015,08,28,08,33,5.00
2015,08,28,08,34,4.30
2015,08,28,08,35,2.90
2015,08,28,08,36,5.00
2015,08,28,08,37,5.50
2015,08,28,08,38,3.40
2015,08,28,08,39,2.50
2015,08,28,08,40,3.00
2015,08,28,08,41,4.10
2015,08,28,08,42,6.00
2015,08,28,08,43,1.80
2015,08,28,08,44,3.90
2015,08,28,08,45,2.40
2015,08,28,08,46,4.90
2015,08,28,08,47,3.70
2015,08,28,08,48,3.50
2015,08,28,08,49,2.70
2015,08,28,08,50,6.20
2015,08,28,08,51,3.60
2015,08,28,08,52,2.60
2015,08,28,08,53,1.80
2015,08,28,08,54,0.70
2015,08,28,08,55,2.00
2015,08,28,08,56,0.00
2015,08,28,08,57,3.80
2015,08,28,08,58,4.10
2015,08,28,08,59,0.90
2015,08,28,09,00,0.00
2015,08,28,09,01,0.10
2015,08,28,09,02,2.20
2015,08,28,09,03,3.40
2015,08,28,09,04,0.10
2015,08,28,09,05,0.00
2015,08,28,09,06,0.00
2015,08,28,09,07,0.00
2015,08,28,09,08,0.00
2015,08,28,09,09,0.10
2015,08,28,09,10,0.00
2015,08,28,09,11,0.00
2015,08,28,09,12,2.50
2015,08,28,09,13,2.00
2015,08,28,09,14,0.20
2015,08,28,09,15,0.20
2015,08,28,09,16,1.50
2015,08,28,09,17,0.00
2015,08,28,09,18,0.10
2015,08,28,09,19,0.00
2015,08,28,09,20,0.80
2015,08,28,09,21,1.20
2015,08,28,09,22,3.00
2015,08,28,09,23,1.30
2015,08,28,09,24,1.50
2015,08,28,09,25,1.30
2015,08,28,09,26,0.00
2015,08,28,09,27,1.30
2015,08,28,09,28,2.20
2015,08,28,09,29,0.20
2015,08,28,09,30,0.00
2015,08,28,09,31,0.10
2015,08,28,09,32,0.10
2015,08,28,09,33,1.00
2015,08,28,09,34,1.80
2015,08,28,09,35,1.90
2015,08,28,09,36,1.90
2015,08,28,09,37,0.10
2015,08,28,09,38,0.00
2015,08,28,09,39,0.00
2015,08,28,09,40,0.00
2015,08,28,09,41,0.00
2015,08,28,09,42,0.00
2015,08,28,09,43,0.00
2015,08,28,09,44,0.00
2015,08,28,09,45,0.00
2015,08,28,09,46,0.00
2015,08,28,09,47,0.00
2015,08,28,09,48,0.00
2015,08,28,09,49,0.00
2015,08,28,09,50,0.00
2015,08,28,09,51,0.00
2015,08,28,09,52,0.00
2015,08,28,09,53,2.00
2015,08,28,09,54,2.90
2015,08,28,09,55,1.50
2015,08,28,09,56,0.00
2015,08,28,09,57,0.00
2015,08,28,09,58,0.10
2015,08,28,09,59,0.00
2015,08,28,10,00,0.00
2015,08,28,10,01,0.00
2015,08,28,10,02,0.00
2015,08,28,10,03,0.00
2015,08,28,10,04,0.00
2015,08,28,10,05,0.00
2015,08,28,10,06,0.10
2015,08,28,10,07,1.00
2015,08,28,10,08,2.30
2015,08,28,10,09,2.30
2015,08,28,10,10,2.30
2015,08,28,10,11,3.40
2015,08,28,10,12,0.90
2015,08,28,10,13,1.90
2015,08,28,10,14,2.20
2015,08,28,10,15,2.20
2015,08,28,10,16,0.10
2015,08,28,10,17,0.00
2015,08,28,10,18,0.10
2015,08,28,10,19,1.70
2015,08,28,10,20,4.50
2015,08,28,10,21,2.60
2015,08,28,10,22,0.00
2015,08,28,10,23,0.00
2015,08,28,10,24,0.00
2015,08,28,10,25,0.70
2015,08,28,10,26,0.10
2015,08,28,10,27,0.30
2015,08,28,10,28,0.90
2015,08,28,10,29,0.10
2015,08,28,10,30,0.10
2015,08,28,10,31,0.00
2015,08,28,10,32,1.20
2015,08,28,10,33,2.20
2015,08,28,10,34,2.80
2015,08,28,10,35,4.40
2015,08,28,10,36,5.70
2015,08,28,10,37,7.70
2015,08,28,10,38,5.80
2015,08,28,10,39,4.20
2015,08,28,10,40,6.40
2015,08,28,10,41,5.00
2015,08,28,10,42,4.70
2015,08,28,10,43,7.60
2015,08,28,10,44,6.80
2015,08,28,10,45,7.40
2015,08,28,10,46,6.40
2015,08,28,10,47,8.90
2015,08,28,10,48,8.40
2015,08,28,10,49,6.30
2015,08,28,10,50,4.70
2015,08,28,10,51,4.80
2015,08,28,10,52,4.00
2015,08,28,10,53,3.50
2015,08,28,10,54,4.20
2015,08,28,10,55,5.50
2015,08,28,10,56,5.60
2015,08,28,10,57,4.10
2015,08,28,10,58,4.30
2015,08,28,10,59,5.10
2015,08,28,11,00,4.80
2015,08,28,11,01,5.20
2015,08,28,11,02,5.20
2015,08,28,11,03,0.60
2015,08,28,11,04,3.10
2015,08,28,11,05,5.90
2015,08,28,11,06,4.80
2015,08,28,11,07,4.30
2015,08,28,11,08,3.90
2015,08,28,11,09,4.80
2015,08,28,11,10,6.70
2015,08,28,11,11,8.60
2015,08,28,11,12,6.70
2015,08,28,11,13,6.90
2015,08,28,11,14,5.10
2015,08,28,11,15,6.60
2015,08,28,11,16,7.20
2015,08,28,11,17,6.60
2015,08,28,11,18,4.30
2015,08,28,11,19,7.70
2015,08,28,11,20,8.70
2015,08,28,11,21,7.80
2015,08,28,11,22,7.70
2015,08,28,11,23,7.30
2015,08,28,11,24,8.40
2015,08,28,11,25,6.20
2015,08,28,11,26,7.40
2015,08,28,11,27,7.50
2015,08,28,11,28,8.00
2015,08,28,11,29,9.00
2015,08,28,11,30,6.30
2015,08,28,11,31,5.30
2015,08,28,11,32,6.10
2015,08,28,11,33,4.60
2015,08,28,11,34,6.40
2015,08,28,11,35,6.30
2015,08,28,11,36,5.40
2015,08,28,11,37,3.80
2015,08,28,11,38,4.40
2015,08,28,11,39,5.90
2015,08,28,11,40,4.70
2015,08,28,11,41,3.30
2015,08,28,11,42,1.30
2015,08,28,11,43,4.30
2015,08,28,11,44,6.40
2015,08,28,11,45,6.70
2015,08,28,11,46,6.60
2015,08,28,11,47,8.20
2015,08,28,11,48,5.40
2015,08,28,11,49,2.50
2015,08,28,11,50,4.30
2015,08,28,11,51,6.00
2015,08,28,11,52,11.30
2015,08,28,11,53,7.90
2015,08,28,11,54,5.30
2015,08,28,11,55,3.30
2015,08,28,11,56,6.30
2015,08,28,11,57,5.40
2015,08,28,11,58,5.00
2015,08,28,11,59,6.90
2015,08,28,12,00,3.00
2015,08,28,12,01,5.20
2015,08,28,12,02,5.60
2015,08,28,12,03,3.60
2015,08,28,12,04,3.40
2015,08,28,12,05,1.70
2015,08,28,12,06,1.80
2015,08,28,12,07,4.00
2015,08,28,12,08,6.60
2015,08,28,12,09,10.00
2015,08,28,12,10,4.20
2015,08,28,12,11,3.70
2015,08,28,12,12,2.40
2015,08,28,12,13,2.60
2015,08,28,12,14,5.00
2015,08,28,12,15,4.20
2015,08,28,12,16,4.50
2015,08,28,12,17,6.00
2015,08,28,12,18,2.60
2015,08,28,12,19,0.60
2015,08,28,12,20,2.10
2015,08,28,12,21,0.10
2015,08,28,12,22,2.70
2015,08,28,12,23,3.80
2015,08,28,12,24,8.10
2015,08,28,12,25,6.40
2015,08,28,12,26,4.80
2015,08,28,12,27,3.70
2015,08,28,12,28,5.90
2015,08,28,12,29,6.10
2015,08,28,12,30,6.60
2015,08,28,12,31,11.00
2015,08,28,12,32,13.50
2015,08,28,12,33,5.40
2015,08,28,12,34,8.20
2015,08,28,12,35,5.80
2015,08,28,12,36,7.90
2015,08,28,12,37,6.60
2015,08,28,12,38,10.60
2015,08,28,12,39,9.50
2015,08,28,12,40,9.30
2015,08,28,12,41,8.10
2015,08,28,12,42,9.20
2015,08,28,12,43,7.20
2015,08,28,12,44,6.70
2015,08,28,12,45,4.50
2015,08,28,12,46,7.00
2015,08,28,12,47,7.40
2015,08,28,12,48,10.20
2015,08,28,12,49,10.80
2015,08,28,12,50,8.30
2015,08,28,12,51,8.80
2015,08,28,12,52,8.30
2015,08,28,12,53,7.60
2015,08,28,12,54,9.00
2015,08,28,12,55,7.60
2015,08,28,12,56,9.40
2015,08,28,12,57,8.50
2015,08,28,12,58,7.60
2015,08,28,12,59,7.50
2015,08,28,13,00,5.80
2015,08,28,13,01,7.10
2015,08,28,13,02,10.50
2015,08,28,13,03,11.40
2015,08,28,13,04,10.10
2015,08,28,13,05,5.80
2015,08,28,13,06,9.70
2015,08,28,13,07,10.00
2015,08,28,13,08,8.50
2015,08,28,13,09,9.20
2015,08,28,13,10,10.80
2015,08,28,13,11,11.30
2015,08,28,13,12,10.00
2015,08,28,13,13,9.80
2015,08,28,13,14,11.40
2015,08,28,13,15,9.70
2015,08,28,13,16,9.00
2015,08,28,13,17,9.00
2015,08,28,13,18,9.70
2015,08,28,13,19,10.90
2015,08,28,13,20,11.60
2015,08,28,13,21,12.30
2015,08,28,13,22,9.90
2015,08,28,13,23,9.80
2015,08,28,13,24,8.80
2015,08,28,13,25,11.30
2015,08,28,13,26,11.30
2015,08,28,13,27,10.10
2015,08,28,13,28,10.60
2015,08,28,13,29,11.80
2015,08,28,13,30,11.80
2015,08,28,13,31,8.80
2015,08,28,13,32,9.60
2015,08,28,13,33,11.20
2015,08,28,13,34,10.30
2015,08,28,13,35,7.90
2015,08,28,13,36,8.80
2015,08,28,13,37,9.70
2015,08,28,13,38,8.80
2015,08,28,13,39,8.30
2015,08,28,13,40,9.90
2015,08,28,13,41,11.60
2015,08,28,13,42,11.20
2015,08,28,13,43,12.00
2015,08,28,13,44,10.60
2015,08,28,13,45,13.70
2015,08,28,13,46,12.80
2015,08,28,13,47,11.40
2015,08,28,13,48,14.50
2015,08,28,13,49,11.80
2015,08,28,13,50,10.70
2015,08,28,13,51,10.60
2015,08,28,13,52,10.80
2015,08,28,13,53,8.00
2015,08,28,13,54,12.20
2015,08,28,13,55,11.60
2015,08,28,13,56,14.10
2015,08,28,13,57,9.90
2015,08,28,13,58,11.70
2015,08,28,13,59,11.10
2015,08,28,14,00,10.20
2015,08,28,14,01,10.10
2015,08,28,14,02,7.10
2015,08,28,14,03,10.10
2015,08,28,14,04,9.70
2015,08,28,14,05,10.60
2015,08,28,14,06,8.00
2015,08,28,14,07,11.00
2015,08,28,14,08,8.50
2015,08,28,14,09,8.70
2015,08,28,14,10,11.30
2015,08,28,14,11,7.40
2015,08,28,14,12,5.40
2015,08,28,14,13,7.50
2015,08,28,14,14,7.00
2015,08,28,14,15,4.20
2015,08,28,14,16,8.50
2015,08,28,14,17,8.20
2015,08,28,14,18,9.70
2015,08,28,14,19,4.80
2015,08,28,14,20,6.90
2015,08,28,14,21,8.50
2015,08,28,14,22,9.20
2015,08,28,14,23,6.30
2015,08,28,14,24,9.70
2015,08,28,14,25,10.80
2015,08,28,14,26,8.60
2015,08,28,14,27,5.80
2015,08,28,14,28,7.30
2015,08,28,14,29,5.10
2015,08,28,14,30,6.20
2015,08,28,14,31,5.90
2015,08,28,14,32,5.20
2015,08,28,14,33,5.90
2015,08,28,14,34,6.40
2015,08,28,14,35,8.70
2015,08,28,14,36,5.20
2015,08,28,14,37,8.00
2015,08,28,14,38,10.90
2015,08,28,14,39,10.10
2015,08,28,14,40,9.20
2015,08,28,14,41,8.10
2015,08,28,14,42,10.80
2015,08,28,14,43,6.40
2015,08,28,14,44,9.70
2015,08,28,14,45,9.70
2015,08,28,14,46,11.60
2015,08,28,14,47,13.30
2015,08,28,14,48,13.70
2015,08,28,14,49,10.60
2015,08,28,14,50,11.70
2015,08,28,14,51,12.40
2015,08,28,14,52,8.40
2015,08,28,14,53,8.80
2015,08,28,14,54,9.70
2015,08,28,14,55,7.80
2015,08,28,14,56,6.40
2015,08,28,14,57,6.80
2015,08,28,14,58,8.20
2015,08,28,14,59,10.70
2015,08,28,15,00,9.60
2015,08,28,15,01,11.60
2015,08,28,15,02,10.40
2015,08,28,15,03,8.30
2015,08,28,15,04,6.70
2015,08,28,15,05,9.80
2015,08,28,15,06,10.70
2015,08,28,15,07,8.80
2015,08,28,15,08,9.50
2015,08,28,15,09,11.20
2015,08,28,15,10,9.00
2015,08,28,15,11,7.30
2015,08,28,15,12,9.50
2015,08,28,15,13,8.80
2015,08,28,15,14,9.10
2015,08,28,15,15,9.60
2015,08,28,15,16,4.90
2015,08,28,15,17,2.40
2015,08,28,15,18,4.10
2015,08,28,15,19,6.40
2015,08,28,15,20,6.40
2015,08,28,15,21,4.90
2015,08,28,15,22,4.40
2015,08,28,15,23,4.20
2015,08,28,15,24,3.40
2015,08,28,15,25,5.20
2015,08,28,15,26,5.20
2015,08,28,15,27,6.20
2015,08,28,15,28,4.20
2015,08,28,15,29,7.00
2015,08,28,15,30,7.30
2015,08,28,15,31,5.30
2015,08,28,15,32,2.10
2015,08,28,15,33,5.20
2015,08,28,15,34,6.60
2015,08,28,15,35,9.20
2015,08,28,15,36,9.30
2015,08,28,15,37,6.60
2015,08,28,15,38,5.20
2015,08,28,15,39,5.70
2015,08,28,15,40,7.30
2015,08,28,15,41,8.10
2015,08,28,15,42,8.30
2015,08,28,15,43,7.90
2015,08,28,15,44,8.10
2015,08,28,15,45,3.40
2015,08,28,15,46,2.10
2015,08,28,15,47,2.20
2015,08,28,15,48,4.90
2015,08,28,15,49,4.10
2015,08,28,15,50,1.40
2015,08,28,15,51,2.60
2015,08,28,15,52,3.70
2015,08,28,15,53,1.10
2015,08,28,15,54,0.00
2015,08,28,15,55,1.30
2015,08,28,15,56,0.90
2015,08,28,15,57,2.60
2015,08,28,15,58,1.60
2015,08,28,15,59,2.10
2015,08,28,16,00,2.10
2015,08,28,16,01,1.00
2015,08,28,16,02,0.30
2015,08,28,16,03,0.20
2015,08,28,16,04,1.00
2015,08,28,16,05,0.00
2015,08,28,16,06,1.10
2015,08,28,16,07,1.00
2015,08,28,16,08,0.00
2015,08,28,16,09,1.40
2015,08,28,16,10,2.30
2015,08,28,16,11,4.40
2015,08,28,16,12,0.80
2015,08,28,16,13,2.40
2015,08,28,16,14,1.90
2015,08,28,16,15,1.90
2015,08,28,16,16,2.30
2015,08,28,16,17,2.50
2015,08,28,16,18,2.90
2015,08,28,16,19,6.20
2015,08,28,16,20,4.60
2015,08,28,16,21,5.00
2015,08,28,16,22,3.00
2015,08,28,16,23,1.80
2015,08,28,16,24,1.50
2015,08,28,16,25,3.90
2015,08,28,16,26,2.40
2015,08,28,16,27,1.90
2015,08,28,16,28,2.60
2015,08,28,16,29,1.60
2015,08,28,16,30,0.80
2015,08,28,16,31,0.10
2015,08,28,16,32,0.00
2015,08,28,16,33,1.10
2015,08,28,16,34,2.80
2015,08,28,16,35,0.80
2015,08,28,16,36,0.60
2015,08,28,16,37,0.20
2015,08,28,16,38,0.10
2015,08,28,16,39,0.60
2015,08,28,16,40,5.00
2015,08,28,16,41,3.40
2015,08,28,16,42,3.90
2015,08,28,16,43,3.70
2015,08,28,16,44,0.80
2015,08,28,16,45,0.80
2015,08,28,16,46,4.70
2015,08,28,16,47,1.80
2015,08,28,16,48,3.20
2015,08,28,16,49,1.40
2015,08,28,16,50,3.70
2015,08,28,16,51,0.50
2015,08,28,16,52,1.80
2015,08,28,16,53,2.50
2015,08,28,16,54,4.00
2015,08,28,16,55,2.20
2015,08,28,16,56,7.10
2015,08,28,16,57,5.70
2015,08,28,16,58,4.50
2015,08,28,16,59,3.70
2015,08,28,17,00,0.20
2015,08,28,17,01,3.90
2015,08,28,17,02,3.40
2015,08,28,17,03,3.60
2015,08,28,17,04,4.30
2015,08,28,17,05,4.00
2015,08,28,17,06,1.60
2015,08,28,17,07,4.10
2015,08,28,17,08,2.10
2015,08,28,17,09,4.80
2015,08,28,17,10,4.50
2015,08,28,17,11,1.60
2015,08,28,17,12,4.90
2015,08,28,17,13,3.60
2015,08,28,17,14,7.60
2015,08,28,17,15,7.90
2015,08,28,17,16,6.00
2015,08,28,17,17,2.90
2015,08,28,17,18,2.90
2015,08,28,17,19,1.20
2015,08,28,17,20,3.50
2015,08,28,17,21,2.80
2015,08,28,17,22,3.30
2015,08,28,17,23,0.10
2015,08,28,17,24,1.10
2015,08,28,17,25,0.00
2015,08,28,17,26,0.90
2015,08,28,17,27,4.40
2015,08,28,17,28,4.70
2015,08,28,17,29,4.90
2015,08,28,17,30,5.70
2015,08,28,17,31,1.10
2015,08,28,17,32,1.60
2015,08,28,17,33,2.80
2015,08,28,17,34,0.40
2015,08,28,17,35,2.70
2015,08,28,17,36,3.40
2015,08,28,17,37,6.20
2015,08,28,17,38,4.60
2015,08,28,17,39,2.00
2015,08,28,17,40,1.70
2015,08,28,17,41,0.40
2015,08,28,17,42,1.10
2015,08,28,17,43,5.00
2015,08,28,17,44,2.30
2015,08,28,17,45,1.90
2015,08,28,17,46,2.30
2015,08,28,17,47,0.40
2015,08,28,17,48,2.80
2015,08,28,17,49,6.10
2015,08,28,17,50,4.80
2015,08,28,17,51,3.80
2015,08,28,17,52,3.70
2015,08,28,17,53,3.30
2015,08,28,17,54,5.90
2015,08,28,17,55,5.10
2015,08,28,17,56,5.60
2015,08,28,17,57,7.20
2015,08,28,17,58,7.20
2015,08,28,17,59,6.60
2015,08,28,18,00,6.10
2015,08,28,18,01,7.10
2015,08,28,18,02,6.60
2015,08,28,18,03,3.90